Weather History for Bakersfield, CA

Change the Weather History Date:

Thursday, May 9, 2013

  Actual Average Record
Temperature  
Mean Temperature 70 °F 69 °F  
Max Temperature 79 °F 82 °F 101 °F (2001)
Min Temperature 60 °F 56 °F 35 °F (1918)
Degree Days  
Heating Degree Days 0    
Month to date heating degree days 2  
Since 1 July heating degree days 1825  
Cooling Degree Days 5    
Month to date cooling degree days 63  
Year to date cooling degree days 193  
Growing Degree Days 20 (Base 50)    
Moisture  
Dew Point 47 °F    
Average Humidity 48    
Maximum Humidity 64    
Minimum Humidity 31    
Precipitation  
Precipitation 0.00 in 0.01 in 0.75 in (1928)
Month to date precipitation 0.05 0.08  
Year to date precipitation 2.36 4.21  
Since 1 July precipitation 3.15 6.29  
Snow  
Snow 0.00 in - - ()
Month to date snowfall 0.0  
Since 1 July snowfall 0.0  
Snow Depth 0.00 in    
Sea Level Pressure  
Sea Level Pressure 30.06 in    
Wind  
Wind Speed 4 mph (NW)    
Max Wind Speed 13 mph    
Max Gust Speed 18 mph    
Visibility 10 miles    
Events      
T = Trace of Precipitation, MM = Missing Value Source: NWS Daily Summary

Daily Weather History Graph

Daily Weather History Graph

Search for Another Location

Airport:

Trip Planner

Search our weather history database for the weather conditions in past years. The results will help you decide how hot, cold, wet, or windy it might be!

Date:

Astronomy

May. 09, 2013 Rise Set
Actual Time 5:56 AM PDT 7:49 PM PDT
Civil Twilight 5:28 AM PDT 8:17 PM PDT
Nautical Twilight 4:54 AM PDT 8:51 PM PDT
Astronomical Twilight 4:18 AM PDT 9:27 PM PDT
Moon 5:43 AM PDT (5/9) 7:49 PM PDT (5/9)
Length of Visible Light 14h 48m
Length of Day
13h 52m
Waning Crescent, 0% of the Moon is Illuminated
May 9
Waning Crescent
May 9
New
May 17
First Quarter
May 24
Full
May 31
Last Quarter

Hourly Weather History & Observations

Time (PDT) Temp. Dew Point Humidity Pressure Visibility Wind Dir Wind Speed Gust Speed Precip Events Conditions
12:54 AM 64.0 °F 45.0 °F 50% 30.07 in 10.0 mi North 5.8 mph - N/A   Mostly Cloudy
1:54 AM 64.0 °F 44.1 °F 48% 30.06 in 10.0 mi North 3.5 mph - N/A   Mostly Cloudy
2:54 AM 63.0 °F 44.1 °F 50% 30.06 in 10.0 mi North 5.8 mph - N/A   Mostly Cloudy
3:54 AM 62.1 °F 46.0 °F 56% 30.06 in 10.0 mi Calm Calm - N/A   Overcast
4:54 AM 62.1 °F 46.9 °F 58% 30.06 in 10.0 mi NW 5.8 mph - N/A   Mostly Cloudy
5:54 AM 60.1 °F 48.0 °F 64% 30.06 in 10.0 mi NW 5.8 mph - N/A   Overcast
6:54 AM 60.1 °F 48.0 °F 64% 30.08 in 10.0 mi NNW 3.5 mph - N/A   Scattered Clouds
7:54 AM 64.0 °F 48.0 °F 56% 30.09 in 10.0 mi WNW 3.5 mph - N/A   Mostly Cloudy
8:54 AM 64.9 °F 48.0 °F 54% 30.10 in 10.0 mi WSW 4.6 mph - N/A   Mostly Cloudy
9:54 AM 66.2 °F 48.2 °F 52% 30.11 in 10.0 mi Calm Calm - N/A   Clear
10:54 AM 69.1 °F 48.0 °F 47% 30.09 in 10.0 mi Variable 3.5 mph - N/A   Clear
11:54 AM 72.0 °F 48.0 °F 43% 30.08 in 10.0 mi Calm Calm - N/A   Clear
12:54 PM 75.9 °F 48.0 °F 37% 30.06 in 10.0 mi West 5.8 mph - N/A   Clear
1:54 PM 75.9 °F 48.9 °F 38% 30.05 in 10.0 mi NW 9.2 mph 16.1 mph N/A   Clear
2:03 PM 78.8 °F 48.2 °F 34% 30.07 in 10.0 mi NNW 9.2 mph - N/A   Partly Cloudy
2:54 PM 77.0 °F 48.0 °F 36% 30.04 in 10.0 mi Variable 5.8 mph - N/A   Clear
3:54 PM 79.0 °F 48.0 °F 34% 30.02 in 10.0 mi WNW 10.4 mph - N/A   Clear
4:54 PM 77.0 °F 48.0 °F 36% 30.02 in 10.0 mi WNW 4.6 mph - N/A   Clear
5:54 PM 78.1 °F 46.0 °F 32% 30.03 in 10.0 mi Variable 4.6 mph - N/A   Clear
6:54 PM 77.0 °F 45.0 °F 32% 30.02 in 10.0 mi North 4.6 mph - N/A   Clear
7:54 PM 73.0 °F 48.0 °F 41% 30.02 in 10.0 mi NNW 5.8 mph - N/A   Clear
8:54 PM 71.1 °F 46.9 °F 42% 30.05 in 10.0 mi North 4.6 mph - N/A   Clear
9:54 PM 71.1 °F 46.0 °F 41% 30.06 in 10.0 mi NNE 3.5 mph - N/A   Clear
10:54 PM 71.6 °F 48.2 °F 43% 30.07 in 10.0 mi Calm Calm - N/A   Clear
11:54 PM 68.0 °F 46.9 °F 47% 30.06 in 10.0 mi Calm Calm - N/A   Clear